GW1475 Weather Reports


Display with metric or nautical units.
time (UTC)temp
F
wind
direction
speed
MPH
gust
MPH
rain 1hr
in
rain 24hr
in
rain mn
in
humidity
%
barometer
mb
20260903110347 71 123 0.0 0.0 0.00 0.00 0.00 99 1012.8
20260903105709 71 107 0.0 0.0 0.00 0.00 0.00 99 1012.8
20260903104523 71 111 0.0 0.0 0.00 0.00 0.00 99 1012.8
20260903103932 71 95 0.0 0.0 0.00 0.00 0.00 99 1012.5
20260903102724 71 119 0.0 0.0 0.00 0.00 0.00 99 1012.8
20260903101537 71 121 0.0 0.0 0.00 0.00 0.00 99 1012.8
20260903100939 71 118 0.0 0.0 0.00 0.00 0.00 99 1012.5
20260903100316 71 92 0.0 0.0 0.00 0.00 0.00 99 1012.1
20260903095728 71 127 0.0 0.0 0.00 0.00 0.00 99 1012.5
20260903093345 71 126 0.0 0.0 0.00 0.00 0.00 99 1012.5
20260903092706 71 128 0.0 0.0 0.00 0.00 0.00 99 1012.5
20260903092127 71 120 0.0 0.0 0.00 0.00 0.00 99 1012.5
20260903091542 71 128 0.0 0.0 0.00 0.00 0.00 99 1012.5
20260903090914 71 113 0.0 0.0 0.00 0.00 0.00 99 1012.5
20260903090341 72 115 0.0 0.0 0.00 0.00 0.00 99 1012.5
20260903085130 72 128 0.0 0.0 0.00 0.00 0.00 99 1012.1
20260903084549 72 130 0.0 0.0 0.00 0.00 0.00 99 1012.5
20260903083943 72 120 0.0 0.0 0.00 0.00 0.00 99 1012.5
20260903083337 72 115 0.0 0.0 0.00 0.00 0.00 99 1012.5
20260903082709 72 148 0.0 0.0 0.00 0.00 0.00 99 1012.5
20260903080311 72 129 0.0 0.0 0.00 0.00 0.00 99 1012.5
20260903075721 72 119 0.0 0.0 0.00 0.00 0.00 99 1012.5
20260903074520 72 122 0.0 0.0 0.00 0.00 0.00 99 1012.5
20260903073915 72 120 0.0 0.0 0.00 0.00 0.00 99 1012.5
20260903073311 72 100 1.0 1.0 0.00 0.00 0.00 99 1012.5
20260903072115 72 124 0.0 0.0 0.00 0.00 0.00 99 1012.1
20260903071506 72 133 0.0 0.0 0.00 0.00 0.00 99 1012.1
20260903070338 72 128 0.0 0.0 0.00 0.00 0.00 99 1012.1
20260903064530 73 138 0.0 0.0 0.00 0.00 0.00 99 1012.1
20260903063923 73 137 0.0 0.0 0.00 0.00 0.00 99 1012.1
20260903063349 73 114 0.0 0.0 0.00 0.00 0.00 99 1012.1
20260903062738 73 122 0.0 0.0 0.00 0.00 0.00 99 1012.1
20260903061509 73 136 0.0 0.0 0.00 0.00 0.00 99 1012.1
20260903055742 73 109 0.0 0.0 0.00 0.00 0.00 99 1012.1
20260903055123 73 161 0.0 0.0 0.00 0.00 0.00 99 1012.1
20260903054512 73 161 0.0 0.0 0.00 0.00 0.00 99 1012.1
20260903053912 73 161 0.0 0.0 0.00 0.00 0.00 99 1012.1
20260903053326 73 161 0.0 0.0 0.00 0.00 0.00 99 1012.5
20260903052716 73 162 0.0 0.0 0.00 0.00 0.00 99 1012.5
20260903052140 73 161 0.0 0.0 0.00 0.00 0.00 99 1012.1
20260903051516 73 161 0.0 0.0 0.00 0.00 0.00 99 1012.1
20260903050946 73 161 0.0 0.0 0.00 0.00 0.00 99 1012.1
20260903050317 73 162 0.0 0.0 0.00 0.00 0.00 99 1012.1
20260903045749 73 161 0.0 0.0 0.00 0.00 0.00 99 1012.5
20260903045134 73 161 0.0 0.0 0.00 0.00 0.00 99 1012.1
20260903044534 73 161 0.0 0.0 0.00 0.00 0.00 99 1012.1
20260903043325 74 162 0.0 0.0 0.00 0.00 0.00 99 1012.1
20260903042124 74 160 0.0 0.0 0.00 0.00 0.00 99 1012.1
20260903041529 74 160 0.0 0.0 0.00 0.00 0.00 99 1012.5
20260903040939 74 160 0.0 0.0 0.00 0.00 0.00 99 1012.1
20260903040314 74 160 0.0 0.0 0.00 0.00 0.00 99 1012.1
20260903035743 74 160 0.0 0.0 0.00 0.00 0.00 99 1012.5
20260903035135 74 160 0.0 0.0 0.00 0.00 0.00 99 1012.5
20260903034514 74 160 0.0 0.0 0.00 0.00 0.00 99 1012.5
20260903033911 74 160 0.0 0.0 0.00 0.00 0.00 99 1012.5
20260903033312 74 160 0.0 0.0 0.00 0.00 0.00 99 1012.1
20260903032713 74 160 0.0 0.0 0.00 0.00 0.00 99 1012.1
20260903032137 75 160 0.0 0.0 0.00 0.00 0.00 99 1012.1
20260903031547 75 160 0.0 0.0 0.00 0.00 0.00 99 1012.1
20260903030924 75 161 0.0 0.0 0.00 0.00 0.00 99 1012.5
20260903030322 75 161 0.0 0.0 0.00 0.00 0.00 99 1012.5
20260903025125 75 128 0.0 0.0 0.00 0.00 0.00 99 1012.1
20260903024531 76 102 1.0 1.0 0.00 0.00 0.00 99 1012.1
20260903023946 75 151 0.0 0.0 0.00 0.00 0.00 99 1012.1
20260903023331 76 151 0.0 0.0 0.00 0.00 0.00 99 1012.5
20260903022714 76 151 0.0 0.0 0.00 0.00 0.00 99 1012.5
20260903022143 76 151 0.0 0.0 0.00 0.00 0.00 99 1012.8
20260903021535 76 153 0.0 0.0 0.00 0.00 0.00 99 1012.5
20260903020909 76 150 0.0 0.0 0.00 0.00 0.00 99 1012.8
20260903020345 76 151 0.0 0.0 0.00 0.00 0.00 99 1012.5
20260903014529 76 151 0.0 0.0 0.00 0.00 0.00 99 1012.5
20260903013913 77 137 0.0 0.0 0.00 0.00 0.00 99 1012.5
20260903012719 77 150 0.0 0.0 0.00 0.00 0.00 99 1012.1
20260903012116 77 116 0.0 0.0 0.00 0.00 0.00 99 1012.1
20260903011516 77 148 0.0 0.0 0.00 0.00 0.00 99 1012.1
20260903010932 78 168 0.0 0.0 0.00 0.00 0.00 99 1012.1
20260903010347 78 99 0.0 0.0 0.00 0.00 0.00 99 1011.8
20260903005737 78 174 0.0 0.0 0.00 0.00 0.00 99 1011.8
20260903005112 78 174 0.0 0.0 0.00 0.00 0.00 99 1011.8
20260903004510 78 174 0.0 0.0 0.00 0.00 0.00 99 1011.8
20260903003930 78 172 0.0 0.0 0.00 0.00 0.00 99 1011.8
20260903003317 79 172 0.0 0.0 0.00 0.00 0.00 99 1011.5
20260903002744 79 173 0.0 0.0 0.00 0.00 0.00 99 1011.5
20260903001505 80 164 0.0 0.0 0.00 0.00 0.00 99 1011.5
20260903000931 80 159 0.0 0.0 0.00 0.00 0.00 99 1011.5
20260903000344 80 159 0.0 0.0 0.00 0.00 0.00 98 1011.5
20260902235720 81 159 0.0 0.0 0.00 0.00 0.00 97 1011.1
20260902235116 81 160 0.0 0.0 0.00 0.00 0.00 97 1011.1
20260902234516 81 134 0.0 0.0 0.00 0.00 0.00 96 1011.5
20260902233910 82 226 0.0 0.0 0.00 0.00 0.00 96 1011.1
20260902233347 82 226 0.0 0.0 0.00 0.00 0.00 95 1011.5
20260902232721 82 226 0.0 0.0 0.00 0.00 0.00 95 1011.5
20260902231506 83 226 0.0 0.0 0.00 0.00 0.00 93 1011.5
20260902230925 83 226 0.0 0.0 0.00 0.00 0.00 93 1011.5
20260902225744 84 226 0.0 0.0 0.00 0.00 0.00 91 1011.1
20260902225108 85 226 0.0 1.0 0.00 0.00 0.00 89 1011.5
20260902224527 86 227 0.0 0.0 0.00 0.00 0.00 87 1011.1
20260902223919 86 227 0.0 0.0 0.00 0.00 0.00 84 1011.5
20260902223305 87 227 0.0 0.0 0.00 0.00 0.00 82 1011.5
20260902222712 88 227 0.0 1.0 0.00 0.00 0.00 79 1011.5
20260902222134 90 228 0.0 0.0 0.00 0.00 0.00 77 1011.1
20260902221527 90 229 0.0 0.0 0.00 0.00 0.00 74 1011.5
20260902220948 89 230 1.0 1.0 0.00 0.00 0.00 75 1011.5
20260902220308 89 237 1.0 1.0 0.00 0.00 0.00 75 1011.5
20260902215711 88 242 1.0 1.0 0.00 0.00 0.00 78 1011.5
20260902215144 88 243 1.0 1.0 0.00 0.00 0.00 78 1011.5
20260902214509 88 255 1.0 1.0 0.00 0.00 0.00 78 1011.5
20260902213936 88 257 1.0 1.0 0.00 0.00 0.00 78 1011.8
20260902213338 89 208 0.0 1.0 0.00 0.00 0.00 77 1011.8
20260902212731 90 277 2.0 2.0 0.00 0.00 0.00 78 1011.5
20260902212120 91 255 2.0 2.0 0.00 0.00 0.00 71 1011.1
20260902211528 92 253 2.0 4.0 0.00 0.00 0.00 71 1011.5
20260902210346 94 149 2.0 2.0 0.00 0.00 0.00 66 1011.8
20260902205741 94 89 1.0 2.0 0.00 0.00 0.00 60 1011.8
20260902205127 96 96 1.0 3.0 0.00 0.00 0.00 58 1011.8
20260902203932 94 239 1.0 2.0 0.00 0.00 0.00 57 1011.8
20260902203344 95 109 5.0 8.0 0.00 0.00 0.00 58 1012.1
20260902202149 97 124 2.0 4.0 0.00 0.00 0.00 57 1012.1
20260902201522 96 212 3.0 3.0 0.00 0.00 0.00 59 1012.1
20260902200942 96 233 2.0 2.0 0.00 0.00 0.00 56 1011.8
20260902200323 96 255 3.0 3.0 0.00 0.00 0.00 60 1012.1
20260902195722 95 79 1.0 1.0 0.00 0.00 0.00 58 1012.1
20260902193930 95 181 2.0 2.0 0.00 0.00 0.00 60 1012.1
20260902192730 94 73 4.0 4.0 0.00 0.00 0.00 58 1012.1
20260902192136 94 98 4.0 7.0 0.00 0.00 0.00 59 1012.1
20260902191520 94 89 3.0 4.0 0.00 0.00 0.00 59 1012.5
20260902190935 95 85 5.0 7.0 0.00 0.00 0.00 57 1012.5
20260902190313 96 56 1.0 2.0 0.00 0.00 0.00 56 1012.5
20260902185110 95 267 3.0 3.0 0.00 0.00 0.00 61 1012.8
20260902184516 94 254 2.0 2.0 0.00 0.00 0.00 59 1013.2
20260902183328 95 157 0.0 0.0 0.00 0.00 0.00 59 1012.8
20260902182735 94 98 0.0 0.0 0.00 0.00 0.00 60 1013.2
20260902182144 93 332 4.0 4.0 0.00 0.00 0.00 61 1013.2
20260902181524 93 281 4.0 4.0 0.00 0.00 0.00 62 1013.2
20260902180917 94 196 1.0 1.0 0.00 0.00 0.00 60 1013.2
20260902175722 93 269 1.0 2.0 0.00 0.00 0.00 61 1013.2
20260902175149 92 231 1.0 2.0 0.00 0.00 0.00 63 1013.5
20260902174513 91 295 0.0 1.0 0.00 0.00 0.00 64 1013.2
20260902173913 92 218 2.0 2.0 0.00 0.00 0.00 65 1013.2
20260902173324 94 156 2.0 2.0 0.00 0.00 0.00 62 1013.8
20260902172743 93 240 1.0 2.0 0.00 0.00 0.00 61 1013.5
20260902171515 92 284 4.0 6.0 0.00 0.00 0.00 64 1013.8
20260902170937 92 161 0.0 1.0 0.00 0.00 0.00 66 1014.2
20260902165724 92 84 1.0 2.0 0.00 0.00 0.00 67 1014.2
20260902165116 91 186 2.0 2.0 0.00 0.00 0.00 68 1014.2
20260902164509 92 258 1.0 1.0 0.00 0.00 0.00 69 1014.2
20260902163912 93 227 1.0 2.0 0.00 0.00 0.00 68 1014.5
20260902162746 91 90 1.0 1.0 0.00 0.00 0.00 70 1014.5
20260902161510 90 108 5.0 7.0 0.00 0.00 0.00 71 1014.5
20260902160909 90 51 1.0 2.0 0.00 0.00 0.00 72 1014.9
20260902160313 90 81 6.0 7.0 0.00 0.00 0.00 73 1014.9
20260902155109 90 131 2.0 3.0 0.00 0.00 0.00 75 1014.5
20260902154534 89 113 6.0 7.0 0.00 0.00 0.00 76 1014.5
20260902153913 89 71 2.0 2.0 0.00 0.00 0.00 77 1014.5
20260902153344 88 107 2.0 3.0 0.00 0.00 0.00 80 1014.9
20260902152731 88 90 4.0 4.0 0.00 0.00 0.00 79 1014.9
20260902152148 88 98 3.0 4.0 0.00 0.00 0.00 80 1014.5
20260902151521 87 96 2.0 2.0 0.00 0.00 0.00 80 1014.5
20260902150946 86 84 1.0 2.0 0.00 0.00 0.00 82 1014.5
20260902150321 86 93 1.0 1.0 0.00 0.00 0.00 85 1014.5
20260902145706 85 99 3.0 3.0 0.00 0.00 0.00 86 1014.5
20260902145124 84 103 2.0 2.0 0.00 0.00 0.00 89 1014.5
20260902144544 83 89 1.0 2.0 0.00 0.00 0.00 88 1014.9
20260902143925 82 95 3.0 3.0 0.00 0.00 0.00 91 1014.5
20260902143334 82 100 2.0 2.0 0.00 0.00 0.00 92 1014.5
20260902142112 81 103 2.0 2.0 0.00 0.00 0.00 95 1014.5
20260902141510 80 97 1.0 1.0 0.00 0.00 0.00 96 1014.5
20260902140912 80 99 1.0 1.0 0.00 0.00 0.00 97 1014.5
20260902140329 79 98 1.0 1.0 0.00 0.00 0.00 99 1014.5
20260902135749 78 91 1.0 1.0 0.00 0.00 0.00 99 1014.5
20260902135130 77 87 1.0 1.0 0.00 0.00 0.00 99 1014.5
20260902134547 76 99 1.0 2.0 0.00 0.00 0.00 99 1014.5
20260902133947 76 91 0.0 0.0 0.00 0.00 0.00 99 1014.5
20260902132736 74 103 0.0 0.0 0.00 0.00 0.00 99 1014.5
20260902132118 74 96 0.0 0.0 0.00 0.00 0.00 99 1014.5
20260902131515 73 108 0.0 0.0 0.00 0.00 0.00 99 1014.5
20260902130928 73 114 0.0 0.0 0.00 0.00 0.00 99 1014.9
20260902130319 72 114 0.0 0.0 0.00 0.00 0.00 99 1014.9
20260902125725 71 117 0.0 0.0 0.00 0.00 0.00 99 1014.5
20260902125134 70 95 0.0 0.0 0.00 0.00 0.00 99 1014.9
20260902124520 70 110 0.0 0.0 0.00 0.00 0.00 99 1014.9
20260902123920 70 112 0.0 0.0 0.00 0.00 0.00 99 1014.9
20260902123305 70 108 0.0 0.0 0.00 0.00 0.00 99 1014.5
20260902122707 70 102 0.0 0.0 0.00 0.00 0.00 99 1014.5
20260902122147 70 107 0.0 0.0 0.00 0.00 0.00 99 1014.5
20260902120946 69 117 0.0 0.0 0.00 0.00 0.00 99 1014.5
20260902115705 69 106 0.0 0.0 0.00 0.00 0.00 99 1014.5
20260902115128 69 106 0.0 0.0 0.00 0.00 0.00 99 1014.5
20260902114505 69 107 0.0 0.0 0.00 0.00 0.00 99 1014.5
20260902113332 69 116 0.0 0.0 0.00 0.00 0.00 99 1014.2
20260902112750 69 122 0.0 0.0 0.00 0.00 0.00 99 1014.2
20260902112137 69 124 0.0 0.0 0.00 0.00 0.00 99 1014.2
20260902111520 69 90 0.0 0.0 0.00 0.00 0.00 99 1014.2